Lawrence, MA

7:49 PM EST on November 13, 2019 (GMT -0500)
Lawrence Municipal

Weather History for KLWM - September, 2019

Change the Weather History Date:

Thursday, September 19, 2019

  Actual Average Record
Temperature  
Mean Temperature 54 °F -  
Max Temperature 69 °F 71 °F 87 °F (1946)
Min Temperature 39 °F 52 °F 38 °F (1943)
Degree Days  
Heating Degree Days 11    
Growing Degree Days 4 (Base 50)    
Moisture  
Dew Point 41 °F    
Average Humidity 68    
Maximum Humidity 96    
Minimum Humidity 32    
Precipitation  
Precipitation 0.00 in - - ()
Sea Level Pressure  
Sea Level Pressure 30.33 in    
Wind  
Wind Speed 1 mph (East)    
Max Wind Speed 7 mph    
Max Gust Speed -    
Visibility 10 miles    
Events      
Averages and records for this station are not official NWS values.
T = Trace of Precipitation, MM = Missing Value Source: NWS Daily Summary

Daily Weather History Graph

Daily Weather History Graph

Search for Another Location

Airport or City:

Astronomy

Sep. 19, 2019 Rise Set
Actual Time 6:28 AM EDT 6:47 PM EDT
Civil Twilight 6:00 AM EDT 7:15 PM EDT
Nautical Twilight 5:26 AM EDT 7:48 PM EDT
Astronomical Twilight 4:52 AM EDT 8:22 PM EDT
Moon 9:47 PM EDT (9/19) 11:35 AM EDT (9/19)
Length of Visible Light 13h 15m
Length of Day
12h 19m
Waning Gibbous, 74% of the Moon is Illuminated
Sep 19
Waning Gibbous
Sep 21
Last Quarter
Sep 28
New
Oct 5
First Quarter
Oct 13
Full

Hourly Weather History & Observations

Time (EDT) Temp. Dew Point Humidity Pressure Visibility Wind Dir Wind Speed Gust Speed Precip Events Conditions
12:54 AM 43.0 °F 39.9 °F 89% 30.37 in 10.0 mi Calm Calm - N/A   Clear
1:54 AM 42.1 °F 39.0 °F 89% 30.36 in 10.0 mi Calm Calm - N/A   Clear
2:54 AM 41.0 °F 39.0 °F 93% 30.35 in 9.0 mi Calm Calm - N/A   Clear
3:54 AM 41.0 °F 39.0 °F 93% 30.36 in 10.0 mi Calm Calm - N/A   Clear
4:54 AM 39.9 °F 37.9 °F 93% 30.36 in 10.0 mi Calm Calm - N/A   Clear
5:54 AM 39.9 °F 37.0 °F 89% 30.36 in 10.0 mi Calm Calm - N/A   Clear
6:54 AM 39.0 °F 37.9 °F 96% 30.36 in 10.0 mi Calm Calm - N/A   Clear
7:54 AM 45.0 °F 43.0 °F 93% 30.38 in 10.0 mi Calm Calm - N/A   Clear
8:54 AM 50.0 °F 44.1 °F 80% 30.39 in 10.0 mi Calm Calm - N/A   Clear
9:54 AM 57.0 °F 45.0 °F 64% 30.38 in 10.0 mi Calm Calm - N/A   Clear
10:54 AM 61.0 °F 39.9 °F 46% 30.38 in 10.0 mi Calm Calm - N/A   Clear
11:54 AM 64.0 °F 39.0 °F 40% 30.36 in 10.0 mi ENE 4.6 mph - N/A   Clear
12:54 PM 64.9 °F 39.9 °F 40% 30.35 in 10.0 mi ENE 6.9 mph - N/A   Clear
1:54 PM 66.9 °F 39.0 °F 36% 30.33 in 10.0 mi ESE 4.6 mph - N/A   Clear
2:54 PM 68.0 °F 37.9 °F 33% 30.31 in 10.0 mi North 4.6 mph - N/A   Clear
3:54 PM 69.1 °F 37.9 °F 32% 30.30 in 10.0 mi Calm Calm - N/A   Clear
4:54 PM 68.0 °F 39.0 °F 35% 30.29 in 10.0 mi West 3.5 mph - N/A   Clear
5:54 PM 66.0 °F 37.9 °F 36% 30.29 in 10.0 mi Calm Calm - N/A   Clear
6:54 PM 61.0 °F 46.9 °F 60% 30.29 in 10.0 mi SSE 4.6 mph - N/A   Clear
7:54 PM 55.9 °F 45.0 °F 67% 30.29 in 10.0 mi Calm Calm - N/A   Clear
8:54 PM 54.0 °F 45.0 °F 72% 30.28 in 10.0 mi Calm Calm - N/A   Clear
9:54 PM 50.0 °F 45.0 °F 83% 30.27 in 10.0 mi Calm Calm - N/A   Clear
10:54 PM 48.0 °F 44.1 °F 86% 30.26 in 10.0 mi Calm Calm - N/A   Clear
11:54 PM 50.0 °F 45.0 °F 83% 30.26 in 10.0 mi South 4.6 mph - N/A   Clear